DW6497 Weather Reports


time (UTC)temp
C
wind
direction
speed
KPH
gust
KPH
rain 1hr
cm
rain 24hr
cm
rain mn
cm
humidity
%
barometer
mb
20260901154521 33 211 1.6 12.9 0.00 0.00 0.00 57 1014.7
20260901153022 32 245 1.6 11.3 0.00 0.00 0.00 59 1014.7
20260901151532 31 214 4.8 14.5 0.00 0.00 0.00 60 1014.9
20260901150017 31 207 0.0 8.0 0.00 0.00 0.00 64 1014.8
20260901144508 30 194 1.6 11.3 0.00 0.00 0.00 66 1014.7
20260901143004 29 215 3.2 19.3 0.00 0.00 0.00 70 1014.8
20260901141615 27 212 0.0 0.0 0.00 0.00 0.00 77 1014.9
20260901140132 26 225 0.0 0.0 0.00 0.00 0.00 89 1014.9
20260901134555 24 225 0.0 0.0 0.00 0.00 0.00 93 1015.0
20260901133056 23 225 0.0 0.0 0.00 0.00 0.00 94 1015.0
20260901131555 22 225 0.0 0.0 0.00 0.00 0.00 95 1015.1
20260901130054 21 225 0.0 0.0 0.00 0.00 0.00 94 1015.0
20260901124556 21 225 0.0 0.0 0.00 0.00 0.00 94 1014.9
20260901123049 21 225 0.0 0.0 0.00 0.00 0.00 94 1014.7
20260901121553 20 225 0.0 0.0 0.00 0.00 0.00 94 1014.6
20260901120047 20 225 0.0 0.0 0.00 0.00 0.00 93 1014.6
20260901114548 20 225 0.0 0.0 0.00 0.00 0.00 93 1014.4
20260901113045 20 225 0.0 0.0 0.00 0.00 0.00 93 1014.3
20260901111544 20 225 0.0 0.0 0.00 0.00 0.00 92 1014.3
20260901110043 20 225 0.0 0.0 0.00 0.00 0.00 92 1014.2
20260901104544 21 225 0.0 0.0 0.00 0.00 0.00 92 1014.1
20260901103040 21 225 0.0 0.0 0.00 0.00 0.00 92 1014.0
20260901101556 21 225 0.0 0.0 0.00 0.00 0.00 91 1014.0
20260901100042 21 225 0.0 0.0 0.00 0.00 0.00 91 1013.8
20260901094541 21 225 0.0 0.0 0.00 0.00 0.00 91 1013.7
20260901093032 21 225 0.0 0.0 0.00 0.00 0.00 90 1013.7
20260901091546 22 225 0.0 0.0 0.00 0.00 0.00 90 1013.6
20260901090029 22 225 0.0 0.0 0.00 0.00 0.00 89 1013.6
20260901084535 22 225 0.0 0.0 0.00 0.00 0.00 88 1013.3
20260901083025 22 225 0.0 0.0 0.00 0.00 0.00 88 1013.1
20260901081521 22 225 0.0 0.0 0.00 0.00 0.00 87 1013.1
20260901080049 23 225 0.0 0.0 0.00 0.00 0.00 87 1013.1
20260901074518 23 225 0.0 0.0 0.00 0.00 0.00 87 1013.1
20260901073021 23 225 0.0 0.0 0.00 0.00 0.00 87 1013.0
20260901071514 23 225 0.0 0.0 0.00 0.00 0.00 86 1012.9
20260901070019 23 225 0.0 0.0 0.00 0.00 0.00 85 1012.8
20260901064513 24 225 0.0 0.0 0.00 0.00 0.00 84 1012.9
20260901063008 24 225 0.0 0.0 0.00 0.00 0.00 82 1013.0
20260901061506 25 225 0.0 0.0 0.00 0.00 0.00 81 1013.0
20260901060005 25 225 0.0 0.0 0.00 0.00 0.00 80 1013.0
20260901054502 25 225 0.0 0.0 0.00 0.00 0.00 80 1013.0
20260901053109 26 226 0.0 0.0 0.00 0.00 0.00 78 1012.8
20260901051559 26 226 0.0 0.0 0.00 0.00 0.00 77 1012.8
20260901050055 26 226 0.0 0.0 0.00 0.00 0.00 76 1012.7
20260901044611 26 178 0.0 0.0 0.00 0.00 0.00 75 1012.7
20260901043051 26 149 0.0 0.0 0.00 0.00 0.00 75 1012.8
20260901041549 26 126 0.0 0.0 0.00 0.00 0.00 74 1012.8
20260901040058 27 167 0.0 0.0 0.00 0.00 0.00 74 1012.8
20260901034547 27 140 0.0 0.0 0.00 0.00 0.00 73 1012.8
20260901033046 27 140 0.0 0.0 0.00 0.00 0.00 73 1012.8
20260901031545 27 137 0.0 0.0 0.00 0.00 0.00 74 1012.7
20260901030043 27 136 0.0 0.0 0.00 0.00 0.00 74 1012.6
20260901024548 27 134 0.0 0.0 0.00 0.00 0.00 74 1012.6
20260901023041 27 135 0.0 0.0 0.00 0.00 0.00 73 1012.5
20260901021543 28 135 0.0 0.0 0.00 0.00 0.00 70 1012.4
20260901020036 28 135 0.0 0.0 0.00 0.00 0.00 68 1012.3
20260901014527 29 135 0.0 0.0 0.00 0.00 0.00 67 1012.2
20260901013024 30 136 0.0 0.0 0.00 0.00 0.00 65 1012.0
20260901011526 30 136 0.0 0.0 0.00 0.00 0.00 62 1011.9
20260901010016 31 136 0.0 0.0 0.00 0.00 0.00 59 1011.7
20260901004512 32 128 0.0 0.0 0.00 0.00 0.00 56 1011.7
20260901003009 33 128 0.0 0.0 0.00 0.00 0.00 53 1011.6
20260901001503 34 214 0.0 0.0 0.00 0.00 0.00 51 1011.6
20260901000001 35 214 0.0 0.0 0.00 0.00 0.00 49 1011.5
20260831234559 35 215 0.0 4.8 0.00 0.00 0.00 48 1011.6
20260831233054 36 207 3.2 8.0 0.00 0.00 0.00 45 1011.5
20260831231603 36 202 0.0 8.0 0.00 0.00 0.00 41 1011.6
20260831230053 36 178 0.0 6.4 0.00 0.00 0.00 41 1011.5
20260831224619 37 219 0.0 12.9 0.00 0.00 0.00 40 1011.3
20260831223046 37 197 3.2 11.3 0.00 0.00 0.00 40 1011.3
20260831221552 37 240 0.0 6.4 0.00 0.00 0.00 39 1011.4
20260831220049 37 178 0.0 11.3 0.00 0.00 0.00 39 1011.5
20260831214546 37 225 1.6 14.5 0.00 0.00 0.00 41 1011.5
20260831213039 37 200 0.0 11.3 0.00 0.00 0.00 38 1011.5
20260831211541 37 242 1.6 16.1 0.00 0.00 0.00 40 1011.6
20260831210035 38 227 1.6 8.0 0.00 0.00 0.00 38 1011.6
20260831203031 37 213 1.6 14.5 0.00 0.00 0.00 41 1011.7
20260831201520 37 235 0.0 9.7 0.00 0.00 0.00 43 1012.0
20260831200016 37 267 1.6 12.9 0.00 0.00 0.00 43 1012.1
20260831194514 37 239 3.2 12.9 0.00 0.00 0.00 44 1012.3
20260831193010 37 226 1.6 11.3 0.00 0.00 0.00 45 1012.4
20260831191529 36 202 4.8 12.9 0.00 0.00 0.00 44 1012.5
20260831190007 36 230 1.6 9.7 0.00 0.00 0.00 44 1012.7
20260831184504 36 209 1.6 16.1 0.00 0.00 0.00 46 1012.9
20260831183002 36 238 6.4 14.5 0.00 0.00 0.00 45 1013.2
20260831181607 35 249 3.2 11.3 0.00 0.00 0.00 46 1013.3
20260831180056 35 196 0.0 8.0 0.00 0.00 0.00 48 1013.5
20260831174554 34 275 4.8 14.5 0.00 0.00 0.00 49 1013.8
20260831173051 33 188 1.6 16.1 0.00 0.00 0.00 51 1014.0
20260831171550 33 159 4.8 14.5 0.00 0.00 0.00 51 1014.1
20260831170047 33 213 4.8 19.3 0.00 0.00 0.00 50 1014.3
20260831164546 33 240 3.2 19.3 0.00 0.00 0.00 50 1014.4
20260831163044 33 207 1.6 11.3 0.00 0.00 0.00 50 1014.4
20260831161542 32 199 4.8 12.9 0.00 0.00 0.00 51 1014.5
20260831160042 32 218 1.6 14.5 0.00 0.00 0.00 53 1014.5